カタログに戻る

HJS-8A

運用中科学PO
NORAD 68687·PAYLOAD·🇨🇳 China

打ち上げ Apr 11, 2026 から South China Sea Launch Area

Loading…

次のパス (今後24時間)

TLE

最新Source: Space-Track

元期: Sep 14, 2026, 13:16 UTC

1 68687U 26078A   26257.55313501 -.00000063  00000-0 -18065-3 0  9997
2 68687  86.4954 252.2925 0002258  86.4009 273.7384 13.24404086 20800

AllMySatでHJS-8Aをリアルタイム追跡

Download on the App Store